| time (UTC) | temp F | wind direction | speed MPH | gust MPH | rain 1hr in | rain 24hr in | rain mn in | humidity % | barometer mb |
| 20260902062623 | 70 | 187 | 0.0 | 0.0 | 0.00 | 0.00 | 0.00 | 82 | 1018.1 |
| 20260902062117 | 70 | 187 | 0.0 | 0.0 | 0.00 | 0.00 | 0.00 | 82 | 1018.1 |
| 20260902061652 | 71 | 187 | 0.0 | 0.0 | 0.00 | 0.00 | 0.00 | 82 | 1018.2 |
| 20260902061122 | 71 | 187 | 0.0 | 0.0 | 0.00 | 0.00 | 0.00 | 82 | 1018.3 |
| 20260902060636 | 71 | 187 | 0.0 | 0.0 | 0.00 | 0.00 | 0.00 | 82 | 1018.4 |
| 20260902060124 | 71 | 187 | 0.0 | 0.0 | 0.00 | 0.00 | 0.00 | 82 | 1018.4 |
| 20260902055640 | 71 | 187 | 0.0 | 0.0 | 0.00 | 0.00 | 0.00 | 82 | 1018.4 |
| 20260902055125 | 71 | 187 | 0.0 | 0.0 | 0.00 | 0.00 | 0.00 | 82 | 1018.3 |
| 20260902054639 | 71 | 187 | 0.0 | 0.0 | 0.00 | 0.00 | 0.00 | 82 | 1018.2 |
| 20260902054135 | 71 | 187 | 0.0 | 0.0 | 0.00 | 0.00 | 0.00 | 82 | 1018.3 |
| 20260902053622 | 71 | 187 | 0.0 | 0.0 | 0.00 | 0.00 | 0.00 | 82 | 1018.3 |
| 20260902053117 | 71 | 187 | 0.0 | 0.0 | 0.00 | 0.00 | 0.00 | 82 | 1018.3 |
| 20260902052633 | 71 | 187 | 0.0 | 0.0 | 0.00 | 0.00 | 0.00 | 82 | 1018.3 |
| 20260902052119 | 71 | 187 | 0.0 | 0.0 | 0.00 | 0.00 | 0.00 | 82 | 1018.3 |
| 20260902051653 | 71 | 187 | 0.0 | 0.0 | 0.00 | 0.00 | 0.00 | 82 | 1018.2 |
| 20260902051121 | 71 | 187 | 0.0 | 0.0 | 0.00 | 0.00 | 0.00 | 82 | 1018.2 |
| 20260902050636 | 71 | 187 | 0.0 | 0.0 | 0.00 | 0.00 | 0.00 | 82 | 1018.2 |
| 20260902050122 | 71 | 187 | 0.0 | 0.0 | 0.00 | 0.00 | 0.00 | 82 | 1018.2 |
| 20260902045654 | 71 | 187 | 0.0 | 0.0 | 0.00 | 0.00 | 0.00 | 82 | 1018.1 |
| 20260902045126 | 71 | 187 | 0.0 | 0.0 | 0.00 | 0.00 | 0.00 | 82 | 1018.2 |
| 20260902044621 | 71 | 187 | 0.0 | 0.0 | 0.00 | 0.00 | 0.00 | 82 | 1018.1 |
| 20260902044136 | 71 | 187 | 0.0 | 0.0 | 0.00 | 0.00 | 0.00 | 82 | 1018.0 |
| 20260902043643 | 70 | 187 | 0.0 | 0.0 | 0.00 | 0.00 | 0.00 | 82 | 1018.0 |
| 20260902043142 | 70 | 187 | 0.0 | 0.0 | 0.00 | 0.00 | 0.00 | 82 | 1017.8 |
| 20260902042639 | 71 | 187 | 0.0 | 0.0 | 0.00 | 0.00 | 0.00 | 82 | 1017.8 |
| 20260902042133 | 71 | 187 | 0.0 | 0.0 | 0.00 | 0.00 | 0.00 | 82 | 1017.7 |
| 20260902041620 | 71 | 187 | 0.0 | 0.0 | 0.00 | 0.00 | 0.00 | 82 | 1017.6 |
| 20260902041135 | 71 | 187 | 0.0 | 0.0 | 0.00 | 0.00 | 0.00 | 82 | 1017.6 |
| 20260902040621 | 71 | 187 | 0.0 | 0.0 | 0.00 | 0.00 | 0.00 | 82 | 1017.5 |
| 20260902040136 | 71 | 187 | 0.0 | 0.0 | 0.00 | 0.00 | 0.00 | 81 | 1017.4 |
| 20260902035621 | 71 | 187 | 0.0 | 0.0 | 0.00 | 0.00 | 0.00 | 81 | 1017.2 |
| 20260902035136 | 71 | 187 | 0.0 | 0.0 | 0.00 | 0.00 | 0.00 | 81 | 1017.1 |
| 20260902034623 | 71 | 187 | 0.0 | 0.0 | 0.00 | 0.00 | 0.00 | 81 | 1017.0 |
| 20260902034155 | 72 | 187 | 0.0 | 0.0 | 0.00 | 0.00 | 0.00 | 81 | 1017.1 |
| 20260902033627 | 72 | 187 | 0.0 | 1.0 | 0.00 | 0.00 | 0.00 | 81 | 1016.9 |
| 20260902033122 | 72 | 187 | 0.0 | 1.0 | 0.00 | 0.00 | 0.00 | 81 | 1016.9 |
| 20260902032639 | 72 | 187 | 0.0 | 0.0 | 0.00 | 0.00 | 0.00 | 81 | 1016.8 |
| 20260902032132 | 73 | 187 | 0.0 | 0.0 | 0.00 | 0.00 | 0.00 | 81 | 1016.8 |
| 20260902031619 | 73 | 187 | 0.0 | 0.0 | 0.00 | 0.00 | 0.00 | 80 | 1016.7 |
| 20260902031135 | 73 | 187 | 0.0 | 0.0 | 0.00 | 0.00 | 0.00 | 80 | 1016.5 |
| 20260902030620 | 74 | 187 | 0.0 | 0.0 | 0.00 | 0.00 | 0.00 | 80 | 1016.5 |
| 20260902030134 | 74 | 186 | 0.0 | 1.0 | 0.00 | 0.00 | 0.00 | 80 | 1016.5 |
| 20260902025622 | 74 | 186 | 0.0 | 3.0 | 0.00 | 0.00 | 0.00 | 80 | 1016.5 |
| 20260902025155 | 74 | 191 | 1.0 | 6.0 | 0.00 | 0.00 | 0.00 | 80 | 1016.5 |
| 20260902024642 | 74 | 204 | 2.0 | 6.0 | 0.00 | 0.00 | 0.00 | 80 | 1016.5 |
| 20260902024136 | 74 | 201 | 2.0 | 5.0 | 0.00 | 0.00 | 0.00 | 80 | 1016.5 |
| 20260902023621 | 74 | 234 | 0.0 | 4.0 | 0.00 | 0.00 | 0.00 | 80 | 1016.5 |
| 20260902023157 | 74 | 214 | 1.0 | 5.0 | 0.00 | 0.00 | 0.00 | 80 | 1016.5 |
| 20260902022644 | 74 | 220 | 3.0 | 5.0 | 0.00 | 0.00 | 0.00 | 80 | 1016.7 |
| 20260902022116 | 74 | 229 | 2.0 | 5.0 | 0.00 | 0.00 | 0.00 | 80 | 1016.8 |
| 20260902021625 | 74 | 235 | 1.0 | 5.0 | 0.00 | 0.00 | 0.00 | 80 | 1016.7 |
| 20260902021118 | 74 | 230 | 1.0 | 4.0 | 0.00 | 0.00 | 0.00 | 80 | 1016.8 |
| 20260902020632 | 74 | 230 | 1.0 | 5.0 | 0.00 | 0.00 | 0.00 | 80 | 1016.7 |
| 20260902020147 | 74 | 232 | 1.0 | 5.0 | 0.00 | 0.00 | 0.00 | 80 | 1016.7 |
| 20260902015621 | 75 | 218 | 1.0 | 4.0 | 0.00 | 0.00 | 0.00 | 80 | 1016.8 |
| 20260902015134 | 74 | 218 | 1.0 | 5.0 | 0.00 | 0.00 | 0.00 | 80 | 1016.8 |
| 20260902014621 | 75 | 205 | 1.0 | 5.0 | 0.00 | 0.00 | 0.00 | 80 | 1016.8 |
| 20260902014137 | 75 | 226 | 0.0 | 4.0 | 0.00 | 0.00 | 0.00 | 80 | 1016.8 |
| 20260902013643 | 75 | 226 | 0.0 | 4.0 | 0.00 | 0.00 | 0.00 | 79 | 1016.8 |
| 20260902013136 | 76 | 234 | 0.0 | 4.0 | 0.00 | 0.00 | 0.00 | 79 | 1016.8 |
| 20260902012623 | 76 | 234 | 0.0 | 3.0 | 0.00 | 0.00 | 0.00 | 79 | 1016.8 |
| 20260902012138 | 76 | 234 | 0.0 | 0.0 | 0.00 | 0.00 | 0.00 | 79 | 1016.7 |
| 20260902011625 | 77 | 234 | 0.0 | 0.0 | 0.00 | 0.00 | 0.00 | 78 | 1016.6 |
| 20260902011120 | 77 | 235 | 0.0 | 0.0 | 0.00 | 0.00 | 0.00 | 78 | 1016.5 |
| 20260902010634 | 78 | 235 | 0.0 | 0.0 | 0.00 | 0.00 | 0.00 | 77 | 1016.6 |
| 20260902010122 | 79 | 235 | 0.0 | 0.0 | 0.00 | 0.00 | 0.00 | 76 | 1016.5 |
| 20260902005636 | 79 | 235 | 0.0 | 3.0 | 0.00 | 0.00 | 0.00 | 75 | 1016.3 |
| 20260902005123 | 79 | 237 | 0.0 | 4.0 | 0.00 | 0.00 | 0.00 | 75 | 1016.1 |
| 20260902004637 | 80 | 237 | 0.0 | 5.0 | 0.00 | 0.00 | 0.00 | 75 | 1016.1 |
| 20260902004124 | 80 | 243 | 1.0 | 5.0 | 0.00 | 0.00 | 0.00 | 74 | 1016.0 |
| 20260902003618 | 80 | 194 | 0.0 | 2.0 | 0.00 | 0.00 | 0.00 | 74 | 1015.9 |
| 20260902003133 | 81 | 194 | 0.0 | 4.0 | 0.00 | 0.00 | 0.00 | 73 | 1015.6 |
| 20260902002619 | 81 | 189 | 2.0 | 4.0 | 0.00 | 0.00 | 0.00 | 73 | 1015.6 |
| 20260902002133 | 81 | 245 | 1.0 | 6.0 | 0.00 | 0.00 | 0.00 | 73 | 1015.5 |
| 20260902001619 | 81 | 170 | 2.0 | 10.0 | 0.00 | 0.00 | 0.00 | 73 | 1015.6 |
| 20260902001130 | 81 | 217 | 5.0 | 10.0 | 0.00 | 0.00 | 0.00 | 73 | 1015.6 |
| 20260902000642 | 81 | 180 | 2.0 | 6.0 | 0.00 | 0.00 | 0.00 | 73 | 1015.8 |
| 20260902000115 | 82 | 208 | 0.0 | 5.0 | 0.00 | 0.00 | 0.00 | 72 | 1015.9 |
| 20260901235630 | 82 | 234 | 1.0 | 5.0 | 0.00 | 0.00 | 0.00 | 72 | 1015.9 |
| 20260901235123 | 82 | 199 | 0.0 | 8.0 | 0.00 | 0.00 | 0.00 | 71 | 1015.7 |
| 20260901234618 | 83 | 226 | 1.0 | 6.0 | 0.00 | 0.00 | 0.00 | 71 | 1015.7 |
| 20260901234155 | 83 | 219 | 2.0 | 6.0 | 0.00 | 0.00 | 0.00 | 71 | 1015.7 |
| 20260901233619 | 83 | 214 | 1.0 | 5.0 | 0.00 | 0.00 | 0.00 | 71 | 1015.6 |
| 20260901233153 | 84 | 214 | 0.0 | 3.0 | 0.00 | 0.00 | 0.00 | 70 | 1015.6 |
| 20260901232639 | 84 | 219 | 1.0 | 5.0 | 0.00 | 0.00 | 0.00 | 69 | 1015.5 |
| 20260901232124 | 85 | 203 | 1.0 | 5.0 | 0.00 | 0.00 | 0.00 | 69 | 1015.5 |
| 20260901231656 | 85 | 203 | 0.0 | 2.0 | 0.00 | 0.00 | 0.00 | 69 | 1015.5 |
| 20260901231125 | 85 | 203 | 0.0 | 5.0 | 0.00 | 0.00 | 0.00 | 69 | 1015.3 |
| 20260901230638 | 85 | 205 | 1.0 | 5.0 | 0.00 | 0.00 | 0.00 | 68 | 1015.3 |
| 20260901230145 | 86 | 211 | 0.0 | 2.0 | 0.00 | 0.00 | 0.00 | 68 | 1015.5 |
| 20260901225621 | 86 | 217 | 0.0 | 3.0 | 0.00 | 0.00 | 0.00 | 68 | 1015.5 |
| 20260901225133 | 86 | 218 | 1.0 | 7.0 | 0.00 | 0.00 | 0.00 | 67 | 1015.4 |
| 20260901224620 | 86 | 214 | 2.0 | 7.0 | 0.00 | 0.00 | 0.00 | 68 | 1015.4 |
| 20260901224116 | 87 | 172 | 2.0 | 6.0 | 0.00 | 0.00 | 0.00 | 68 | 1015.4 |
| 20260901223625 | 87 | 200 | 1.0 | 5.0 | 0.00 | 0.00 | 0.00 | 68 | 1015.5 |
| 20260901223118 | 87 | 235 | 2.0 | 6.0 | 0.00 | 0.00 | 0.00 | 68 | 1015.5 |
| 20260901222632 | 87 | 207 | 0.0 | 6.0 | 0.00 | 0.00 | 0.00 | 68 | 1015.4 |
| 20260901222124 | 86 | 258 | 1.0 | 7.0 | 0.00 | 0.00 | 0.00 | 68 | 1015.3 |
| 20260901221618 | 86 | 223 | 0.0 | 7.0 | 0.00 | 0.00 | 0.00 | 68 | 1015.3 |
| 20260901221153 | 86 | 252 | 0.0 | 4.0 | 0.00 | 0.00 | 0.00 | 67 | 1015.3 |
| 20260901220619 | 86 | 265 | 0.0 | 6.0 | 0.00 | 0.00 | 0.00 | 67 | 1015.2 |
| 20260901220134 | 87 | 231 | 1.0 | 9.0 | 0.00 | 0.00 | 0.00 | 67 | 1015.2 |
| 20260901215621 | 87 | 289 | 4.0 | 11.0 | 0.00 | 0.00 | 0.00 | 65 | 1015.2 |
| 20260901215134 | 88 | 275 | 7.0 | 11.0 | 0.00 | 0.00 | 0.00 | 63 | 1015.2 |
| 20260901214622 | 88 | 239 | 4.0 | 8.0 | 0.00 | 0.00 | 0.00 | 64 | 1015.2 |
| 20260901214136 | 88 | 214 | 1.0 | 5.0 | 0.00 | 0.00 | 0.00 | 65 | 1015.2 |
| 20260901213642 | 88 | 286 | 2.0 | 6.0 | 0.00 | 0.00 | 0.00 | 65 | 1015.2 |
| 20260901213136 | 88 | 228 | 0.0 | 6.0 | 0.00 | 0.00 | 0.00 | 63 | 1015.3 |
| 20260901212623 | 89 | 210 | 0.0 | 5.0 | 0.00 | 0.00 | 0.00 | 63 | 1015.2 |
| 20260901212137 | 89 | 211 | 1.0 | 5.0 | 0.00 | 0.00 | 0.00 | 63 | 1015.3 |
| 20260901211623 | 89 | 208 | 1.0 | 10.0 | 0.00 | 0.00 | 0.00 | 63 | 1015.3 |
| 20260901211137 | 88 | 201 | 1.0 | 17.0 | 0.00 | 0.00 | 0.00 | 63 | 1015.3 |
| 20260901210623 | 88 | 185 | 9.0 | 17.0 | 0.00 | 0.00 | 0.00 | 63 | 1015.2 |
| 20260901210118 | 88 | 178 | 1.0 | 8.0 | 0.00 | 0.00 | 0.00 | 68 | 1015.3 |
| 20260901205634 | 88 | 241 | 2.0 | 8.0 | 0.00 | 0.00 | 0.00 | 66 | 1015.2 |
| 20260901205141 | 87 | 186 | 2.0 | 6.0 | 0.00 | 0.00 | 0.00 | 67 | 1015.3 |
| 20260901204630 | 87 | 241 | 0.0 | 6.0 | 0.00 | 0.00 | 0.00 | 69 | 1015.2 |
| 20260901204147 | 88 | 119 | 0.0 | 4.0 | 0.00 | 0.00 | 0.00 | 67 | 1015.3 |
| 20260901203619 | 88 | 107 | 1.0 | 6.0 | 0.00 | 0.00 | 0.00 | 65 | 1015.3 |
| 20260901203133 | 88 | 31 | 0.0 | 7.0 | 0.00 | 0.00 | 0.00 | 64 | 1015.2 |
| 20260901202621 | 88 | 203 | 3.0 | 7.0 | 0.00 | 0.00 | 0.00 | 65 | 1015.4 |
| 20260901202135 | 89 | 116 | 4.0 | 7.0 | 0.00 | 0.00 | 0.00 | 62 | 1015.3 |
| 20260901201623 | 89 | 253 | 0.0 | 11.0 | 0.00 | 0.00 | 0.00 | 63 | 1015.3 |
| 20260901201138 | 89 | 197 | 1.0 | 11.0 | 0.00 | 0.00 | 0.00 | 61 | 1015.3 |
| 20260901200624 | 90 | 178 | 2.0 | 6.0 | 0.00 | 0.00 | 0.00 | 61 | 1015.4 |
| 20260901200137 | 90 | 214 | 1.0 | 12.0 | 0.00 | 0.00 | 0.00 | 61 | 1015.3 |
| 20260901195625 | 91 | 199 | 6.0 | 12.0 | 0.00 | 0.00 | 0.00 | 58 | 1015.3 |
| 20260901195117 | 92 | 188 | 2.0 | 15.0 | 0.00 | 0.00 | 0.00 | 58 | 1015.5 |
| 20260901194651 | 91 | 178 | 2.0 | 24.0 | 0.00 | 0.00 | 0.00 | 58 | 1015.2 |
| 20260901194122 | 92 | 191 | 9.0 | 24.0 | 0.00 | 0.00 | 0.00 | 57 | 1015.3 |
| 20260901193636 | 92 | 154 | 8.0 | 12.0 | 0.00 | 0.00 | 0.00 | 59 | 1015.3 |
| 20260901193125 | 92 | 217 | 5.0 | 15.0 | 0.00 | 0.00 | 0.00 | 57 | 1015.3 |
| 20260901192620 | 91 | 199 | 5.0 | 15.0 | 0.00 | 0.00 | 0.00 | 58 | 1015.3 |
| 20260901192134 | 92 | 226 | 2.0 | 15.0 | 0.00 | 0.00 | 0.00 | 60 | 1015.3 |
| 20260901191621 | 92 | 215 | 2.0 | 21.0 | 0.00 | 0.00 | 0.00 | 58 | 1015.2 |
| 20260901191137 | 92 | 231 | 9.0 | 21.0 | 0.00 | 0.00 | 0.00 | 57 | 1015.3 |
| 20260901190643 | 92 | 216 | 3.0 | 11.0 | 0.00 | 0.00 | 0.00 | 59 | 1015.2 |
| 20260901190135 | 92 | 176 | 4.0 | 15.0 | 0.00 | 0.00 | 0.00 | 59 | 1015.3 |
| 20260901185622 | 92 | 228 | 8.0 | 15.0 | 0.00 | 0.00 | 0.00 | 59 | 1015.3 |
| 20260901185115 | 91 | 286 | 3.0 | 24.0 | 0.00 | 0.00 | 0.00 | 59 | 1015.3 |
| 20260901184626 | 90 | 223 | 8.0 | 24.0 | 0.00 | 0.00 | 0.00 | 60 | 1015.4 |
| 20260901184123 | 90 | 228 | 8.0 | 22.0 | 0.00 | 0.00 | 0.00 | 59 | 1015.5 |
| 20260901183617 | 90 | 253 | 8.0 | 22.0 | 0.00 | 0.00 | 0.00 | 60 | 1015.5 |
| 20260901183152 | 90 | 332 | 2.0 | 21.0 | 0.00 | 0.00 | 0.00 | 61 | 1015.5 |
| 20260901182629 | 90 | 320 | 10.0 | 24.0 | 0.00 | 0.00 | 0.00 | 60 | 1015.6 |
| 20260901182142 | 90 | 283 | 12.0 | 24.0 | 0.00 | 0.00 | 0.00 | 58 | 1015.9 |
| 20260901181636 | 90 | 305 | 3.0 | 12.0 | 0.00 | 0.00 | 0.00 | 60 | 1015.8 |
| 20260901181123 | 91 | 349 | 3.0 | 14.0 | 0.00 | 0.00 | 0.00 | 59 | 1015.9 |
| 20260901180636 | 91 | 231 | 4.0 | 13.0 | 0.00 | 0.00 | 0.00 | 60 | 1016.0 |
| 20260901180124 | 90 | 341 | 4.0 | 20.0 | 0.00 | 0.00 | 0.00 | 60 | 1016.1 |
| 20260901175620 | 90 | 245 | 9.0 | 20.0 | 0.00 | 0.00 | 0.00 | 58 | 1016.0 |
| 20260901175154 | 91 | 353 | 3.0 | 18.0 | 0.00 | 0.00 | 0.00 | 58 | 1016.2 |
| 20260901174620 | 91 | 222 | 10.0 | 21.0 | 0.00 | 0.00 | 0.00 | 58 | 1016.2 |
| 20260901174137 | 91 | 279 | 12.0 | 21.0 | 0.00 | 0.00 | 0.00 | 58 | 1016.1 |
| 20260901173622 | 91 | 221 | 7.0 | 15.0 | 0.00 | 0.00 | 0.00 | 59 | 1016.1 |
| 20260901173118 | 90 | 266 | 4.0 | 18.0 | 0.00 | 0.00 | 0.00 | 60 | 1016.2 |
| 20260901172633 | 90 | 272 | 9.0 | 20.0 | 0.00 | 0.00 | 0.00 | 61 | 1016.4 |
| 20260901172122 | 89 | 222 | 7.0 | 23.0 | 0.00 | 0.00 | 0.00 | 60 | 1016.3 |
| 20260901171637 | 89 | 214 | 14.0 | 22.0 | 0.00 | 0.00 | 0.00 | 60 | 1016.5 |
| 20260901171125 | 88 | 219 | 4.0 | 19.0 | 0.00 | 0.00 | 0.00 | 61 | 1016.4 |
| 20260901170638 | 88 | 247 | 9.0 | 23.0 | 0.00 | 0.00 | 0.00 | 60 | 1016.5 |
| 20260901170125 | 88 | 239 | 12.0 | 23.0 | 0.00 | 0.00 | 0.00 | 60 | 1016.4 |
| 20260901165639 | 87 | 238 | 3.0 | 18.0 | 0.00 | 0.00 | 0.00 | 63 | 1016.5 |
| 20260901165128 | 88 | 304 | 8.0 | 15.0 | 0.00 | 0.00 | 0.00 | 61 | 1016.5 |
| 20260901164623 | 89 | 269 | 4.0 | 19.0 | 0.00 | 0.00 | 0.00 | 61 | 1016.3 |
| 20260901164140 | 89 | 223 | 9.0 | 20.0 | 0.00 | 0.00 | 0.00 | 60 | 1016.3 |
| 20260901163632 | 89 | 204 | 10.0 | 20.0 | 0.00 | 0.00 | 0.00 | 60 | 1016.4 |
| 20260901163125 | 89 | 224 | 7.0 | 18.0 | 0.00 | 0.00 | 0.00 | 61 | 1016.4 |
| 20260901162641 | 88 | 288 | 5.0 | 12.0 | 0.00 | 0.00 | 0.00 | 64 | 1016.3 |
| 20260901162133 | 88 | 267 | 3.0 | 11.0 | 0.00 | 0.00 | 0.00 | 64 | 1016.4 |
| 20260901161621 | 87 | 234 | 6.0 | 12.0 | 0.00 | 0.00 | 0.00 | 66 | 1016.4 |
| 20260901161117 | 87 | 232 | 2.0 | 12.0 | 0.00 | 0.00 | 0.00 | 66 | 1016.5 |
| 20260901160632 | 87 | 232 | 5.0 | 14.0 | 0.00 | 0.00 | 0.00 | 67 | 1016.4 |
| 20260901160120 | 87 | 224 | 4.0 | 14.0 | 0.00 | 0.00 | 0.00 | 68 | 1016.3 |
| 20260901155636 | 87 | 205 | 7.0 | 13.0 | 0.00 | 0.00 | 0.00 | 69 | 1016.3 |
| 20260901155123 | 86 | 199 | 7.0 | 13.0 | 0.00 | 0.00 | 0.00 | 70 | 1016.5 |
| 20260901154634 | 86 | 193 | 5.0 | 11.0 | 0.00 | 0.00 | 0.00 | 71 | 1016.5 |
| 20260901154124 | 86 | 168 | 3.0 | 10.0 | 0.00 | 0.00 | 0.00 | 71 | 1016.6 |
| 20260901153618 | 85 | 190 | 3.0 | 10.0 | 0.00 | 0.00 | 0.00 | 73 | 1016.6 |
| 20260901153132 | 85 | 183 | 3.0 | 9.0 | 0.00 | 0.00 | 0.00 | 74 | 1016.7 |
| 20260901152622 | 84 | 207 | 5.0 | 9.0 | 0.00 | 0.00 | 0.00 | 73 | 1016.7 |
| 20260901152135 | 85 | 189 | 2.0 | 10.0 | 0.00 | 0.00 | 0.00 | 72 | 1016.7 |
| 20260901151641 | 85 | 197 | 4.0 | 10.0 | 0.00 | 0.00 | 0.00 | 72 | 1016.6 |
| 20260901151122 | 85 | 207 | 3.0 | 12.0 | 0.00 | 0.00 | 0.00 | 72 | 1016.7 |
| 20260901150656 | 85 | 236 | 7.0 | 12.0 | 0.00 | 0.00 | 0.00 | 71 | 1016.8 |
| 20260901150122 | 85 | 233 | 6.0 | 11.0 | 0.00 | 0.00 | 0.00 | 73 | 1016.8 |
| 20260901145633 | 84 | 233 | 5.0 | 9.0 | 0.00 | 0.00 | 0.00 | 75 | 1016.9 |
| 20260901145139 | 84 | 224 | 3.0 | 9.0 | 0.00 | 0.00 | 0.00 | 76 | 1017.0 |
| 20260901144621 | 83 | 191 | 3.0 | 8.0 | 0.00 | 0.00 | 0.00 | 77 | 1017.0 |
| 20260901144157 | 82 | 187 | 3.0 | 8.0 | 0.00 | 0.00 | 0.00 | 77 | 1017.0 |
| 20260901143623 | 81 | 175 | 4.0 | 9.0 | 0.00 | 0.00 | 0.00 | 78 | 1017.0 |
| 20260901143119 | 81 | 205 | 3.0 | 8.0 | 0.00 | 0.00 | 0.00 | 78 | 1017.0 |
| 20260901142633 | 80 | 177 | 3.0 | 8.0 | 0.00 | 0.00 | 0.00 | 79 | 1016.9 |
| 20260901142121 | 79 | 184 | 5.0 | 9.0 | 0.00 | 0.00 | 0.00 | 80 | 1016.9 |
| 20260901141637 | 77 | 208 | 3.0 | 7.0 | 0.00 | 0.00 | 0.00 | 80 | 1017.0 |
| 20260901141159 | 77 | 218 | 1.0 | 7.0 | 0.00 | 0.00 | 0.00 | 81 | 1017.1 |
| 20260901140643 | 76 | 172 | 0.0 | 2.0 | 0.00 | 0.00 | 0.00 | 81 | 1017.1 |
| 20260901140135 | 75 | 244 | 0.0 | 1.0 | 0.00 | 0.00 | 0.00 | 81 | 1017.1 |
| 20260901135623 | 74 | 244 | 0.0 | 3.0 | 0.00 | 0.00 | 0.00 | 81 | 1017.1 |
| 20260901135136 | 74 | 244 | 1.0 | 3.0 | 0.00 | 0.00 | 0.00 | 81 | 1017.1 |
| 20260901134622 | 73 | 212 | 0.0 | 2.0 | 0.00 | 0.00 | 0.00 | 81 | 1017.2 |
| 20260901134137 | 73 | 212 | 0.0 | 0.0 | 0.00 | 0.00 | 0.00 | 81 | 1017.3 |
| 20260901133622 | 73 | 212 | 0.0 | 0.0 | 0.00 | 0.00 | 0.00 | 81 | 1017.3 |
| 20260901133130 | 73 | 212 | 0.0 | 0.0 | 0.00 | 0.00 | 0.00 | 82 | 1017.2 |
| 20260901132637 | 72 | 212 | 0.0 | 0.0 | 0.00 | 0.00 | 0.00 | 82 | 1017.4 |
| 20260901132123 | 72 | 230 | 0.0 | 3.0 | 0.00 | 0.00 | 0.00 | 82 | 1017.5 |
| 20260901131656 | 72 | 232 | 0.0 | 5.0 | 0.00 | 0.00 | 0.00 | 82 | 1017.5 |
| 20260901131123 | 71 | 222 | 1.0 | 5.0 | 0.00 | 0.00 | 0.00 | 82 | 1017.4 |
| 20260901130637 | 71 | 198 | 1.0 | 4.0 | 0.00 | 0.00 | 0.00 | 82 | 1017.4 |
| 20260901130124 | 71 | 196 | 0.0 | 3.0 | 0.00 | 0.00 | 0.00 | 83 | 1017.5 |
| 20260901125639 | 71 | 202 | 1.0 | 4.0 | 0.00 | 0.00 | 0.00 | 83 | 1017.6 |
| 20260901125145 | 71 | 203 | 1.0 | 5.0 | 0.00 | 0.00 | 0.00 | 84 | 1017.6 |
| 20260901124619 | 71 | 212 | 0.0 | 5.0 | 0.00 | 0.00 | 0.00 | 84 | 1017.7 |
| 20260901124134 | 71 | 216 | 2.0 | 4.0 | 0.00 | 0.00 | 0.00 | 84 | 1017.7 |
| 20260901123619 | 71 | 201 | 1.0 | 4.0 | 0.00 | 0.00 | 0.00 | 84 | 1017.6 |
| 20260901123133 | 71 | 187 | 3.0 | 4.0 | 0.00 | 0.00 | 0.00 | 84 | 1017.7 |
| 20260901122621 | 70 | 219 | 1.0 | 3.0 | 0.00 | 0.00 | 0.00 | 85 | 1017.7 |
| 20260901122155 | 70 | 214 | 0.0 | 3.0 | 0.00 | 0.00 | 0.00 | 85 | 1017.7 |
| 20260901121620 | 70 | 212 | 1.0 | 3.0 | 0.00 | 0.00 | 0.00 | 85 | 1017.7 |
| 20260901121133 | 70 | 220 | 0.0 | 2.0 | 0.00 | 0.00 | 0.00 | 85 | 1017.8 |
| 20260901120620 | 70 | 214 | 0.0 | 0.0 | 0.00 | 0.00 | 0.00 | 85 | 1017.7 |
| 20260901120151 | 69 | 216 | 0.0 | 0.0 | 0.00 | 0.00 | 0.00 | 85 | 1017.7 |
| 20260901115646 | 69 | 214 | 0.0 | 0.0 | 0.00 | 0.00 | 0.00 | 85 | 1017.7 |
| 20260901115119 | 69 | 214 | 0.0 | 0.0 | 0.00 | 0.00 | 0.00 | 85 | 1017.7 |
| 20260901114632 | 69 | 214 | 0.0 | 0.0 | 0.00 | 0.00 | 0.00 | 85 | 1017.6 |
| 20260901114140 | 69 | 214 | 0.0 | 0.0 | 0.00 | 0.00 | 0.00 | 85 | 1017.7 |
| 20260901113632 | 69 | 214 | 0.0 | 0.0 | 0.00 | 0.00 | 0.00 | 85 | 1017.6 |
| 20260901113119 | 68 | 214 | 0.0 | 0.0 | 0.00 | 0.00 | 0.00 | 84 | 1017.5 |
| 20260901112636 | 68 | 214 | 0.0 | 0.0 | 0.00 | 0.00 | 0.00 | 84 | 1017.5 |
| 20260901112121 | 68 | 214 | 0.0 | 0.0 | 0.00 | 0.00 | 0.00 | 85 | 1017.4 |
| 20260901111635 | 68 | 214 | 0.0 | 0.0 | 0.00 | 0.00 | 0.00 | 85 | 1017.4 |
| 20260901111122 | 68 | 214 | 0.0 | 0.0 | 0.00 | 0.00 | 0.00 | 85 | 1017.5 |
| 20260901110634 | 68 | 214 | 0.0 | 0.0 | 0.00 | 0.00 | 0.00 | 85 | 1017.5 |
| 20260901110122 | 68 | 214 | 0.0 | 0.0 | 0.00 | 0.00 | 0.00 | 84 | 1017.5 |
| 20260901105638 | 68 | 214 | 0.0 | 0.0 | 0.00 | 0.00 | 0.00 | 84 | 1017.5 |
| 20260901105145 | 68 | 214 | 0.0 | 0.0 | 0.00 | 0.00 | 0.00 | 84 | 1017.6 |
| 20260901104639 | 68 | 215 | 0.0 | 2.0 | 0.00 | 0.00 | 0.00 | 84 | 1017.6 |
| 20260901104125 | 68 | 215 | 0.0 | 4.0 | 0.00 | 0.00 | 0.00 | 85 | 1017.5 |
| 20260901103617 | 68 | 215 | 1.0 | 4.0 | 0.00 | 0.00 | 0.00 | 85 | 1017.4 |
| 20260901103131 | 68 | 214 | 1.0 | 2.0 | 0.00 | 0.00 | 0.00 | 85 | 1017.3 |
| 20260901102619 | 68 | 214 | 0.0 | 1.0 | 0.00 | 0.00 | 0.00 | 85 | 1017.3 |
| 20260901102133 | 68 | 214 | 0.0 | 0.0 | 0.00 | 0.00 | 0.00 | 85 | 1017.2 |
| 20260901101620 | 68 | 214 | 0.0 | 2.0 | 0.00 | 0.00 | 0.00 | 85 | 1017.1 |
| 20260901101132 | 68 | 214 | 0.0 | 3.0 | 0.00 | 0.00 | 0.00 | 85 | 1017.1 |
| 20260901100617 | 68 | 214 | 0.0 | 2.0 | 0.00 | 0.00 | 0.00 | 85 | 1017.1 |
| 20260901100131 | 68 | 214 | 0.0 | 0.0 | 0.00 | 0.00 | 0.00 | 85 | 1017.1 |
| 20260901095618 | 68 | 212 | 0.0 | 0.0 | 0.00 | 0.00 | 0.00 | 84 | 1017.2 |
| 20260901095130 | 68 | 211 | 0.0 | 0.0 | 0.00 | 0.00 | 0.00 | 84 | 1017.2 |
| 20260901094625 | 67 | 212 | 0.0 | 0.0 | 0.00 | 0.00 | 0.00 | 84 | 1017.3 |
| 20260901094141 | 67 | 212 | 0.0 | 0.0 | 0.00 | 0.00 | 0.00 | 84 | 1017.4 |
| 20260901093654 | 68 | 212 | 0.0 | 0.0 | 0.00 | 0.00 | 0.00 | 84 | 1017.4 |
| 20260901093120 | 68 | 212 | 0.0 | 0.0 | 0.00 | 0.00 | 0.00 | 84 | 1017.5 |
| 20260901092656 | 68 | 212 | 0.0 | 0.0 | 0.00 | 0.00 | 0.00 | 84 | 1017.4 |
| 20260901092120 | 67 | 212 | 0.0 | 0.0 | 0.00 | 0.00 | 0.00 | 84 | 1017.4 |
| 20260901091634 | 67 | 212 | 0.0 | 0.0 | 0.00 | 0.00 | 0.00 | 84 | 1017.5 |
| 20260901091140 | 67 | 212 | 0.0 | 0.0 | 0.00 | 0.00 | 0.00 | 84 | 1017.4 |
| 20260901090633 | 67 | 212 | 0.0 | 0.0 | 0.00 | 0.01 | 0.00 | 84 | 1017.4 |
| 20260901090121 | 67 | 212 | 0.0 | 0.0 | 0.00 | 0.01 | 0.00 | 84 | 1017.6 |
| 20260901085634 | 67 | 212 | 0.0 | 0.0 | 0.00 | 0.01 | 0.00 | 84 | 1017.5 |
| 20260901085120 | 67 | 212 | 0.0 | 0.0 | 0.00 | 0.01 | 0.00 | 84 | 1017.5 |
| 20260901084635 | 67 | 212 | 0.0 | 0.0 | 0.00 | 0.01 | 0.00 | 84 | 1017.6 |
| 20260901084124 | 67 | 212 | 0.0 | 0.0 | 0.00 | 0.01 | 0.00 | 84 | 1017.6 |
| 20260901083618 | 68 | 212 | 0.0 | 0.0 | 0.00 | 0.01 | 0.00 | 84 | 1017.6 |
| 20260901083127 | 68 | 212 | 0.0 | 0.0 | 0.00 | 0.01 | 0.00 | 84 | 1017.6 |
| 20260901082622 | 68 | 212 | 0.0 | 0.0 | 0.00 | 0.01 | 0.00 | 84 | 1017.6 |
| 20260901082132 | 67 | 212 | 0.0 | 0.0 | 0.00 | 0.01 | 0.00 | 84 | 1017.5 |
| 20260901081618 | 68 | 212 | 0.0 | 0.0 | 0.00 | 0.01 | 0.00 | 84 | 1017.5 |
| 20260901081134 | 68 | 212 | 0.0 | 0.0 | 0.00 | 0.01 | 0.00 | 84 | 1017.6 |
| 20260901080627 | 68 | 212 | 0.0 | 0.0 | 0.00 | 0.01 | 0.00 | 84 | 1017.6 |
| 20260901080120 | 68 | 212 | 0.0 | 0.0 | 0.00 | 0.01 | 0.00 | 84 | 1017.6 |
| 20260901075635 | 68 | 212 | 0.0 | 0.0 | 0.00 | 0.01 | 0.00 | 84 | 1017.6 |
| 20260901075119 | 68 | 212 | 0.0 | 0.0 | 0.00 | 0.01 | 0.00 | 84 | 1017.5 |
| 20260901074633 | 68 | 212 | 0.0 | 0.0 | 0.00 | 0.01 | 0.00 | 84 | 1017.7 |
| 20260901074122 | 68 | 212 | 0.0 | 0.0 | 0.00 | 0.01 | 0.00 | 84 | 1017.7 |
| 20260901073636 | 68 | 212 | 0.0 | 0.0 | 0.00 | 0.01 | 0.00 | 84 | 1017.7 |
| 20260901073123 | 68 | 212 | 0.0 | 0.0 | 0.00 | 0.01 | 0.00 | 84 | 1017.6 |
| 20260901072658 | 68 | 212 | 0.0 | 0.0 | 0.00 | 0.01 | 0.00 | 84 | 1017.6 |
| 20260901072144 | 68 | 211 | 0.0 | 0.0 | 0.00 | 0.01 | 0.00 | 84 | 1017.7 |
| 20260901071637 | 68 | 211 | 0.0 | 0.0 | 0.00 | 0.01 | 0.00 | 84 | 1017.7 |
| 20260901071123 | 68 | 212 | 0.0 | 0.0 | 0.00 | 0.01 | 0.00 | 84 | 1017.7 |
| 20260901070617 | 68 | 212 | 0.0 | 0.0 | 0.00 | 0.01 | 0.00 | 84 | 1017.7 |
| 20260901070132 | 68 | 212 | 0.0 | 0.0 | 0.00 | 0.01 | 0.00 | 84 | 1017.7 |
| 20260901065621 | 68 | 212 | 0.0 | 0.0 | 0.00 | 0.01 | 0.00 | 84 | 1017.7 |
| 20260901065137 | 68 | 212 | 0.0 | 0.0 | 0.00 | 0.01 | 0.00 | 84 | 1017.7 |
| 20260901064623 | 68 | 212 | 0.0 | 0.0 | 0.00 | 0.01 | 0.00 | 84 | 1017.7 |
| 20260901064137 | 68 | 212 | 0.0 | 0.0 | 0.00 | 0.01 | 0.00 | 84 | 1017.9 |
| 20260901063623 | 68 | 212 | 0.0 | 0.0 | 0.00 | 0.01 | 0.00 | 84 | 1017.9 |
| 20260901063118 | 68 | 212 | 0.0 | 1.0 | 0.00 | 0.01 | 0.00 | 84 | 1017.8 |